Flag for Netherlands Weather past 2 weeks in Rotterdam, Netherlands

Now
63 °F

Scattered clouds.


Feels Like: 63 °F
Forecast: 56 / 64 °F
Wind: 8 mph from West

Location: Rotterdam Zestienhoven Airport

Current Time: Aug 30, 2014 at 8:48:12 PM

Latest Report: Aug 30, 2014 at 7:25 PM


Visibility: N/A

Pressure: 29.95 "Hg

Humidity: 77%

Dew point: 55 °F

Location of RotterdamLocation

Historic Weather in Rotterdam — Graph

°F

Rotterdam temperature yesterday

Maximum temperature yesterday: 68 °F (at 12:55 PM)
Minimum temperature yesterday: 59 °F (at 1:55 AM)
Average temperature yesterday: 63 °F

Past Weeks' High & Low Weather Summary

 TemperatureHumidityPressure
High70 °F (Aug 27, 4:25 PM)100% (Aug 19, 3:55 AM)30.09 "Hg (Aug 19, 3:55 AM)
Low43 °F (Aug 27, 6:55 AM)49% (Aug 27, 1:55 PM)29.62 "Hg (Aug 18, 4:25 AM)
Average58 °F81%29.90 "Hg
* Reported Aug 15 6:25 PM — Aug 30 6:55 PM, Rotterdam, Weather by CustomWeather, © 2014

Note: Actual official high and low records may vary slightly from our data, if they occured in-between our weather recording intervals... More about our weather records

Advertising

Rotterdam weather history for previous 24 hours

 ConditionsComfort  
Time TempWeatherWind HumidityBarometerVisibility
6:55 PM
Aug 30
63 °FMostly cloudy.8 mph77%29.95 "HgN/A
6:25 PM63 °FPassing clouds.13 mph77%29.95 "HgN/A
5:55 PM63 °FCloudy.12 mph77%29.95 "HgN/A
5:25 PM63 °FScattered clouds.13 mph73%29.95 "HgN/A
4:55 PM64 °FBroken clouds.15 mph73%29.95 "HgN/A
4:25 PM63 °FBroken clouds.15 mph73%29.95 "HgN/A
3:55 PM63 °FScattered clouds.15 mph73%29.95 "HgN/A
3:25 PM64 °FPassing clouds.17 mph68%29.95 "HgN/A
2:55 PM64 °FPartly sunny.15 mph73%29.95 "HgN/A
2:25 PM64 °FBroken clouds.17 mph73%29.92 "HgN/A
1:55 PM64 °FDrizzle. Broken clouds.12 mph88%29.95 "HgN/A
1:25 PM66 °FCloudy.13 mph78%29.95 "HgN/A
12:55 PM64 °FLight rain. Broken clouds.13 mph88%29.92 "HgN/A
12:25 PM64 °FBroken clouds.14 mph88%29.95 "HgN/A
11:55 AM64 °FBroken clouds.14 mph88%29.92 "HgN/A
11:25 AM63 °FRain showers. Broken clouds.12 mph94%29.95 "Hg2 mi
10:55 AM63 °FBroken clouds.12 mph94%29.95 "HgN/A
10:25 AM63 °FDrizzle. Broken clouds.12 mph94%29.95 "HgN/A
9:55 AM61 °FDrizzle. Broken clouds.13 mph94%29.95 "HgN/A
9:25 AM61 °FLight rain. Partly sunny.16 mph94%29.92 "HgN/A
8:55 AM61 °FRain. Broken clouds.14 mph94%29.92 "HgN/A
8:25 AM61 °FDrizzle. Broken clouds.14 mph94%29.92 "Hg6 mi
7:55 AM61 °FCloudy.13 mph94%29.92 "HgN/A
7:25 AM61 °FPassing clouds.16 mph94%29.92 "HgN/A
6:55 AM61 °FPartly cloudy.15 mph94%29.92 "HgN/A
6:25 AM61 °FPartly cloudy.14 mph94%29.92 "Hg6 mi
5:55 AM61 °FPartly cloudy.14 mph94%29.92 "Hg5 mi
5:25 AM61 °FPartly cloudy.14 mph94%29.92 "Hg4 mi
4:55 AM63 °FLight rain. Partly cloudy.16 mph88%29.92 "HgN/A
4:25 AM63 °FPassing clouds.17 mph83%29.92 "HgN/A
3:55 AM63 °FPartly cloudy.16 mph83%29.92 "HgN/A
3:25 AM63 °FPartly cloudy.17 mph83%29.92 "HgN/A
2:55 AM63 °FLight rain. Partly cloudy.14 mph83%29.95 "HgN/A
2:25 AM63 °FMostly cloudy.14 mph83%29.95 "HgN/A
1:55 AM63 °FPartly cloudy.13 mph83%29.95 "HgN/A
1:25 AM63 °FMostly cloudy.15 mph77%29.95 "HgN/A
12:55 AM63 °FOvercast.13 mph77%29.95 "HgN/A
12:25 AM63 °FPassing clouds.13 mph77%29.95 "HgN/A
11:55 PM
Aug 29
63 °FPartly cloudy.14 mph77%29.95 "HgN/A
11:25 PM63 °FPassing clouds.14 mph77%29.95 "HgN/A
10:55 PM63 °FPassing clouds.14 mph77%29.95 "HgN/A
8:55 PM63 °FPassing clouds.18 mph73%29.95 "HgN/A
8:25 PM64 °FPassing clouds.20 mph73%29.95 "HgN/A
Weather by CustomWeather, © 2014

See weather overviewHow to use our weather pages